DAL556 KJFK-KPSP

Flight info

Callsign DAL556
Flight time N/A
Altitude 34000
Route GAYEL Q818 WOZEE HOCKE MONEE DBQ CAPPR KD60A GLD HGO DAAYE HELPS UNLAP TBC PLNDL Q86 YORRK RDBUL1
Aircraft A319/M-SDE3FGHIRWY/LB1

Departure

Time N/A
Airport John F. Kennedy International Airport (KJFK)

Arrival

Time 2026-05-08 18:05
Airport Palm Springs International Airport (KPSP)
Time Latitude Longitude Altitude Speed Heading
2026-05-08 17:22 35.75266 -112.06716 35984 ft 439 kts 244°
2026-05-08 17:22 35.73784 -112.09997 35985 ft 439 kts 244°
2026-05-08 17:22 35.70773 -112.16541 35976 ft 439 kts 243°
2026-05-08 17:23 35.67698 -112.23044 35980 ft 439 kts 243°
2026-05-08 17:23 35.64618 -112.29535 35982 ft 439 kts 243°
2026-05-08 17:24 35.61548 -112.36030 35978 ft 439 kts 243°
2026-05-08 17:24 35.58495 -112.42529 35999 ft 439 kts 243°
2026-05-08 17:25 35.55467 -112.49041 35971 ft 439 kts 243°
2026-05-08 17:25 35.52444 -112.55548 35949 ft 439 kts 243°
2026-05-08 17:26 35.49403 -112.62043 35943 ft 439 kts 243°
2026-05-08 17:26 35.46357 -112.68539 35944 ft 439 kts 243°
2026-05-08 17:27 35.43305 -112.75026 35936 ft 439 kts 243°
2026-05-08 17:27 35.40254 -112.81525 35930 ft 439 kts 243°
2026-05-08 17:28 35.37204 -112.88007 35923 ft 439 kts 242°
2026-05-08 17:28 35.34152 -112.94478 35926 ft 439 kts 242°
2026-05-08 17:29 35.31108 -113.00901 35919 ft 439 kts 242°
2026-05-08 17:29 35.28040 -113.07359 35919 ft 439 kts 242°
2026-05-08 17:30 35.24961 -113.13805 35910 ft 438 kts 242°
2026-05-08 17:30 35.21892 -113.20247 35917 ft 438 kts 242°
2026-05-08 17:31 35.18831 -113.26680 35900 ft 438 kts 242°
2026-05-08 17:31 35.15761 -113.33106 35899 ft 438 kts 242°
2026-05-08 17:32 35.12692 -113.39524 35882 ft 437 kts 242°
2026-05-08 17:32 35.09620 -113.45936 35873 ft 437 kts 242°
2026-05-08 17:33 35.06546 -113.52341 35872 ft 437 kts 242°
2026-05-08 17:33 35.03468 -113.58745 35523 ft 437 kts 242°
2026-05-08 17:34 35.01923 -113.61945 35277 ft 438 kts 242°
2026-05-08 17:34 35.00374 -113.65153 35037 ft 439 kts 242°
2026-05-08 17:34 34.98822 -113.68358 34791 ft 440 kts 241°
2026-05-08 17:34 34.97263 -113.71580 34554 ft 441 kts 242°
2026-05-08 17:35 34.95707 -113.74796 34314 ft 441 kts 242°
2026-05-08 17:35 34.94144 -113.78024 34067 ft 442 kts 241°
2026-05-08 17:35 34.92572 -113.81260 33831 ft 443 kts 241°
2026-05-08 17:35 34.91005 -113.84488 33559 ft 443 kts 241°
2026-05-08 17:36 34.89966 -113.86629 33383 ft 444 kts 241°
2026-05-08 17:36 34.88392 -113.89867 33117 ft 444 kts 241°
2026-05-08 17:36 34.86658 -113.92987 32857 ft 447 kts 233°
2026-05-08 17:36 34.84532 -113.95751 32592 ft 448 kts 224°
2026-05-08 17:37 34.82231 -113.98304 32337 ft 447 kts 224°
2026-05-08 17:37 34.79940 -114.00854 32082 ft 446 kts 224°
2026-05-08 17:37 34.77688 -114.03367 31759 ft 443 kts 224°
2026-05-08 17:37 34.75423 -114.05890 31184 ft 440 kts 224°
2026-05-08 17:38 34.73177 -114.08388 30628 ft 437 kts 224°
2026-05-08 17:38 34.70938 -114.10874 30079 ft 435 kts 224°
2026-05-08 17:38 34.68706 -114.13351 29467 ft 432 kts 224°
2026-05-08 17:38 34.66497 -114.15800 28934 ft 428 kts 224°
2026-05-08 17:39 34.64306 -114.18225 28394 ft 424 kts 224°
2026-05-08 17:39 34.62177 -114.20685 27882 ft 420 kts 230°
2026-05-08 17:39 34.60269 -114.23366 27717 ft 420 kts 231°
2026-05-08 17:39 34.58354 -114.26053 27533 ft 421 kts 231°
2026-05-08 17:40 34.56434 -114.28722 27316 ft 420 kts 231°
2026-05-08 17:40 34.54510 -114.31386 27114 ft 419 kts 231°
2026-05-08 17:40 34.52587 -114.34048 26894 ft 419 kts 231°
2026-05-08 17:40 34.50671 -114.36704 26686 ft 418 kts 231°
2026-05-08 17:41 34.48762 -114.39353 26401 ft 417 kts 231°
2026-05-08 17:41 34.46861 -114.41999 26197 ft 416 kts 231°
2026-05-08 17:41 34.44965 -114.44642 25984 ft 415 kts 231°
2026-05-08 17:41 34.43074 -114.47277 25769 ft 414 kts 231°
2026-05-08 17:42 34.41177 -114.49910 25565 ft 414 kts 231°
2026-05-08 17:42 34.39280 -114.52535 25364 ft 413 kts 230°
2026-05-08 17:42 34.37383 -114.55156 25155 ft 413 kts 231°
2026-05-08 17:42 34.35497 -114.57766 24952 ft 412 kts 231°
2026-05-08 17:43 34.33610 -114.60381 24743 ft 411 kts 231°
2026-05-08 17:43 34.31729 -114.62984 24530 ft 411 kts 231°
2026-05-08 17:43 34.29844 -114.65589 24337 ft 410 kts 231°
2026-05-08 17:43 34.27993 -114.68143 24135 ft 409 kts 231°
2026-05-08 17:44 34.26118 -114.70732 23928 ft 409 kts 231°
2026-05-08 17:44 34.24243 -114.73318 23726 ft 408 kts 231°
2026-05-08 17:44 34.22372 -114.75898 23519 ft 408 kts 231°
2026-05-08 17:44 34.20502 -114.78471 23302 ft 407 kts 231°
2026-05-08 17:45 34.18632 -114.81038 23099 ft 406 kts 230°
2026-05-08 17:45 34.16767 -114.83592 22880 ft 405 kts 230°
2026-05-08 17:45 34.14901 -114.86148 22271 ft 406 kts 230°
2026-05-08 17:45 34.13038 -114.88704 21749 ft 405 kts 230°
2026-05-08 17:46 34.11184 -114.91253 21238 ft 404 kts 230°
2026-05-08 17:46 34.09332 -114.93796 20722 ft 402 kts 230°
2026-05-08 17:46 34.07485 -114.96327 20211 ft 401 kts 230°
2026-05-08 17:46 34.05639 -114.98851 19682 ft 401 kts 230°
2026-05-08 17:47 34.03799 -115.01365 19183 ft 400 kts 230°
2026-05-08 17:47 34.01960 -115.03874 18672 ft 398 kts 230°
2026-05-08 17:47 34.00144 -115.06347 18149 ft 388 kts 230°
2026-05-08 17:47 33.98947 -115.07976 17788 ft 380 kts 230°
2026-05-08 17:48 33.96811 -115.11202 17160 ft 367 kts 240°
2026-05-08 17:48 33.95724 -115.13963 16748 ft 362 kts 253°
2026-05-08 17:48 33.95138 -115.16873 16502 ft 356 kts 261°
2026-05-08 17:48 33.94673 -115.19791 16210 ft 354 kts 261°
2026-05-08 17:49 33.94201 -115.22697 15919 ft 353 kts 260°
2026-05-08 17:49 33.93728 -115.25591 15621 ft 352 kts 260°
2026-05-08 17:49 33.93254 -115.28477 15349 ft 351 kts 260°
2026-05-08 17:49 33.92783 -115.31352 15061 ft 349 kts 260°
2026-05-08 17:50 33.92315 -115.34213 14772 ft 348 kts 260°
2026-05-08 17:50 33.91850 -115.37063 14492 ft 345 kts 260°
2026-05-08 17:50 33.91389 -115.39893 14216 ft 343 kts 259°
2026-05-08 17:50 33.90931 -115.42704 13933 ft 342 kts 259°
2026-05-08 17:51 33.90476 -115.45506 13642 ft 340 kts 259°
2026-05-08 17:51 33.90021 -115.48298 13344 ft 339 kts 259°
2026-05-08 17:51 33.89564 -115.51074 13074 ft 337 kts 259°
2026-05-08 17:51 33.89106 -115.53838 12800 ft 336 kts 259°
2026-05-08 17:52 33.88650 -115.56586 12522 ft 334 kts 259°
2026-05-08 17:52 33.88196 -115.59327 12247 ft 333 kts 259°
2026-05-08 17:52 33.87839 -115.64838 11702 ft 330 kts 271°
2026-05-08 17:53 33.87845 -115.67592 11436 ft 328 kts 270°
2026-05-08 17:53 33.87849 -115.70334 11164 ft 326 kts 270°
2026-05-08 17:53 33.87851 -115.73061 10898 ft 325 kts 270°
2026-05-08 17:53 33.87849 -115.75742 10637 ft 324 kts 270°
2026-05-08 17:54 33.87846 -115.78443 10369 ft 322 kts 269°
2026-05-08 17:54 33.87841 -115.81118 10168 ft 314 kts 269°
2026-05-08 17:54 33.87841 -115.83692 10021 ft 303 kts 269°
2026-05-08 17:54 33.87842 -115.86199 9823 ft 296 kts 269°
2026-05-08 17:55 33.87840 -115.88673 9655 ft 295 kts 269°
2026-05-08 17:55 33.87835 -115.91139 9430 ft 294 kts 269°
2026-05-08 17:55 33.87826 -115.93588 9199 ft 292 kts 268°
2026-05-08 17:55 33.87510 -115.95983 8978 ft 289 kts 251°
2026-05-08 17:56 33.86699 -115.98183 8763 ft 288 kts 238°
2026-05-08 17:56 33.85645 -116.00227 8555 ft 287 kts 237°
2026-05-08 17:56 33.84594 -116.02269 8347 ft 286 kts 237°
2026-05-08 17:56 33.83563 -116.04276 8172 ft 277 kts 238°
2026-05-08 17:57 33.82571 -116.06211 8016 ft 267 kts 238°
2026-05-08 17:57 33.81614 -116.08082 7888 ft 256 kts 238°
2026-05-08 17:57 33.80666 -116.09934 7682 ft 262 kts 238°
2026-05-08 17:57 33.79715 -116.11785 7366 ft 259 kts 238°
2026-05-08 17:58 33.78772 -116.13620 7059 ft 257 kts 238°
2026-05-08 17:58 33.77838 -116.15436 6756 ft 255 kts 238°
2026-05-08 17:58 33.76907 -116.17241 6452 ft 253 kts 238°
2026-05-08 17:58 33.75985 -116.19035 6152 ft 251 kts 238°
2026-05-08 17:59 33.75070 -116.20812 5846 ft 250 kts 238°
2026-05-08 17:59 33.74158 -116.22586 5539 ft 249 kts 238°
2026-05-08 17:59 33.73249 -116.24354 5249 ft 247 kts 238°
2026-05-08 17:59 33.72352 -116.26098 4978 ft 243 kts 238°
2026-05-08 18:00 33.71622 -116.27909 4702 ft 240 kts 249°
2026-05-08 18:00 33.71061 -116.31711 4191 ft 225 kts 271°
2026-05-08 18:00 33.71191 -116.33558 3895 ft 220 kts 281°
2026-05-08 18:01 33.71558 -116.35305 3587 ft 213 kts 289°
2026-05-08 18:01 33.72122 -116.36922 3308 ft 206 kts 294°
2026-05-08 18:01 33.72685 -116.38434 3041 ft 194 kts 294°
2026-05-08 18:01 33.73219 -116.39877 2805 ft 184 kts 293°
2026-05-08 18:02 33.73726 -116.41254 2587 ft 177 kts 293°
2026-05-08 18:02 33.74086 -116.42144 2422 ft 174 kts 302°
2026-05-08 18:02 33.75197 -116.43407 2179 ft 157 kts 321°
2026-05-08 18:02 33.76020 -116.44187 1971 ft 146 kts 321°
2026-05-08 18:03 33.76802 -116.44932 1823 ft 141 kts 322°
2026-05-08 18:03 33.77560 -116.45661 1629 ft 139 kts 321°
2026-05-08 18:03 33.78286 -116.46421 1436 ft 138 kts 320°
2026-05-08 18:03 33.79019 -116.47164 1243 ft 138 kts 321°
2026-05-08 18:04 33.79767 -116.47884 1034 ft 137 kts 322°
2026-05-08 18:04 33.80521 -116.48577 833 ft 136 kts 324°
2026-05-08 18:04 33.81273 -116.49259 637 ft 134 kts 326°
2026-05-08 18:04 33.82020 -116.49922 474 ft 134 kts 325°
2026-05-08 18:05 33.82725 -116.50549 420 ft 113 kts 323°
2026-05-08 18:05 33.83194 -116.50968 444 ft 48 kts 323°
2026-05-08 18:05 33.83340 -116.51111 451 ft 13 kts 290°
2026-05-08 18:05 33.83291 -116.51188 450 ft 13 kts 200°
2026-05-08 18:06 33.83196 -116.51185 449 ft 15 kts 150°
2026-05-08 18:06 33.83106 -116.51105 437 ft 18 kts 143°
2026-05-08 18:06 33.82997 -116.51008 442 ft 21 kts 143°
2026-05-08 18:06 33.82896 -116.50916 440 ft 15 kts 139°
2026-05-08 18:07 33.82807 -116.50828 427 ft 18 kts 143°
2026-05-08 18:07 33.82704 -116.50736 427 ft 17 kts 143°
2026-05-08 18:07 33.82617 -116.50679 424 ft 11 kts 187°
2026-05-08 18:07 33.82551 -116.50689 420 ft 12 kts 146°
2026-05-08 18:08 33.82472 -116.50634 427 ft 12 kts 164°
2026-05-08 18:08 33.82409 -116.50649 419 ft 6 kts 193°
2026-05-08 18:08 33.82389 -116.50655 427 ft 1 kts 194°
2026-05-08 18:08 33.82386 -116.50656 427 ft 0 kts 194°